Starlink 4725

operational
NORAD ID: 53700 Int'l Des: 2022-107 Owner: SPXS Country: US Constellation: starlink
LEOCIRCULAR

Über Starlink 4725

Beschreibung wird geladen...

Live-Position

3D-Globus wird geladen...

Nächste Überflüge

Höhenverlauf

Altitude vs Time

uPlot chart will show altitude changes over time

Zweizeiliger Elementsatz

1 53700U 22107A 25305.14772446 .00000519 00000-0 50689-4 0 9994
2 53700 53.2181 100.7910 0001840 86.1058 274.0145 15.08836619175458
Epoch: 1. Nov. 2025 • Age: 17 hours

Aktueller Status

Höhe 554.2 km
Geschwindigkeit 7.58 km/s
Subsatellitenpunkt -40.68°S, 64.55°E
Startdatum 5. Sept. 2022
Alter 3.1 years
Typ internet

Technische Details

Klassifizierung Payload
Masse 305.00 kg
Trockenmasse 290.00 kg
Gesamtmasse 305.00 kg
Länge 0.20 m
Durchmesser 2.80 m
Spannweite 9.00 m
Form Box + pan
Hersteller SPXS
Bus-Typ Starlink
Phasenstatus In Orbit
Besitzer/Staat SPXS/US

Große Konstellationen

Loading constellations...